Location: ??????
(55.7522°N, 37.6156°E)
Time: 04:22:42
(UTC+00:00)

Cosmos 1271 Rocket - Pass Details

Date: 14 June 2025
Orbit: 443 x 475 km, 81.2° (Epoch: 11 July)

Event Time Altitude Azimuth Distance (km) Brightness Sun altitude
Exits shadow 22:17:13 - 233° (SW) 1,794 5.0 -10.3°
Reaches altitude 10° 22:17:37 10° 236° (WSW) 1,652 4.8 -10.3°
Maximum altitude 22:20:43 26° 295° (WNW) 969 4.2 -10.2°
Drops below altitude 10° 22:23:51 10° 355° (N) 1,660 6.6 -10.1°
Sets 22:26:12 0° 8° (N) 2,540 8.5 -10.0°
